Regional Weather Roundup
Issued by NWS

Home | Current Version | Previous Version | Graphics & Text | Print | Product List | Glossary On
Versions: 1 2 3 4 5 6 7 8 9 10 11 12 13 14 15 16 17 18 19 20 21 22 23 24 25 26 27 28 29 30 31 32 33 34 35 36 37 38 39 40 41 42 43 44 45 46 47 48 49 50
000
ASUS45 KCYS 170410
RWRWY

WYOMING REGIONAL WEATHER ROUNDUP
NATIONAL WEATHER SERVICE CHEYENNE WY
1000 PM MDT THU APR 16 2015

NOTE:  "FAIR" INDICATES FEW OR NO CLOUDS BELOW 12,000 FEET
WITH NO SIGNIFICANT WEATHER AND/OR OBSTRUCTIONS TO VISIBILITY.

WYZ001-170500-
YELLOWSTONE NATIONAL PARK

CITY           SKY/WX    TMP DP  RH WIND       PRES   REMARKS
LK YELLOWSTONE   N/A     27  21  78 NW5       30.27R WCI  22
W YELLOWSTONE  NOT AVBL

$$
WYZ002>013-054>058-071-098>099-170500-
NORTHERN WYOMING

CITY           SKY/WX    TMP DP  RH WIND       PRES   REMARKS
JACKSON        FAIR      41  25  52 NE13      30.20R
CODY           FAIR      37  28  70 W5        30.27R WCI  34
GREYBULL       FAIR      44  28  53 SE8       30.26R
WORLAND        FAIR      38  32  79 SW6       30.26R WCI  33
SHERIDAN       FAIR      33  28  81 CALM      30.25R
BUFFALO        FAIR      39  26  59 W9        30.26S WCI  33
GILLETTE       FAIR      33  27  78 SW3       30.24R
HULETT         FAIR      37  32  81 S7        30.25R WCI  32
NEWCASTLE      CLOUDY    46  32  57 NE8       30.23R

$$
WYZ014>020-022>026-101>103-170500-
CENTRAL WYOMING

CITY           SKY/WX    TMP DP  RH WIND       PRES   REMARKS
BIG PINEY      CLOUDY    35  29  78 SW7       30.24R WCI  29
PINEDALE       CLOUDY    34  30  86 SW14      30.24R WCI  24
DUBOIS         FAIR      28  23  80 CALM      30.26S
LANDER         CLOUDY    34  32  92 CALM      30.27S
RIVERTON       CLOUDY    36  32  85 SW9       30.28S WCI  29
CASPER         CLOUDY    37  32  82 CALM      30.26R
DOUGLAS        CLOUDY    38  37  97 NW6       30.25S WCI  33

$$
WYZ021-027>030-104>119-170500-
SOUTHERN WYOMING

CITY           SKY/WX    TMP DP  RH WIND       PRES   REMARKS
EVANSTON       CLOUDY    32  27  81 E12       30.22R WCI  23
KEMMERER       LGT SNOW  32  32 100 CALM      30.25
FORT BRIDGER   LGT SNOW  32  32 100 E3        30.27R
ROCK SPRINGS   CLOUDY    31  27  85 NE16G26   30.22R WCI  20
DIXON          FAIR      36  29  73 NE10      30.13R WCI  29
RAWLINS        CLOUDY    33  29  85 NE12      30.21R WCI  24
SARATOGA       FAIR      34  30  86 MISG      30.18R
LARAMIE        CLOUDY    31  30  96 N8        30.17F WCI  23
CHEYENNE       LGT SNOW  33  32  96 N15       30.17R FOG     WCI  23
TORRINGTON     LGT RAIN  44  41  89 NW9       30.17F
PINE BLUFFS    RAIN      37  37 100 N10       30.18S WCI  30

$$


USA.gov is the U.S. government's official web portal to all federal, state and local government web resources and services.